Powrót do katalogu

STARLINK-37416

AktywnyŁącznośćSSO
NORAD 100310·PAYLOAD·🇺🇸 United States

Wystrzelony Aug 12, 2026 z Vandenberg Space Force Base

Loading…

Następne Przeloty (najbliższe 24 godziny)

TLE

ŚwieżeSource: Space-Track

Epoka: Sep 14, 2026, 19:00 UTC

1 A0310U 26184K   26257.79207505  .00012255  00000-0  34063-3 0  9996
2 A0310  97.2833 122.9608 0001813  80.6441 279.5008 15.37002269  6420

Śledź STARLINK-37416 w czasie rzeczywistym z AllMySat

Download on the App Store